Weather in Titovka

Russia / Bryansk Oblast     53°15′38″N   34°03′41″E
temp.,
°C
wind,
m/s
gust,
m/s
humid.,
%
clouds,
%
prec.,
mm/h
press.,
hPa
HPBL,
m
14 may, fri
fri1400:00+7se35928 0.0 101475
03:00+8se399367 0.0 1014151
06:00+9ese41085100 0.0 1013215
09:00+14ese597538 0.0 1012368
12:00+19ese576367 0.0 10111193
15:00+20ese686734 1.1 10091292
18:00+18sse61080100 5.6 1006400
21:00+14s4119347 10.8 1007223
15 may, sat
sat1500:00+13s499692 0.0 1008192
03:00+11s36956 0.0 1008103
06:00+11s399672 0.0 1008224
09:00+16ssw57825 0.0 1009593
12:00+18ssw686857 0.8 10091414
15:00+18ssw696718 2.0 10091435
18:00+17sw58768 1.0 1010876
21:00+13ssw379267 1.6 1011130
16 may, sun
sun1600:00+11ssw38945 0.0 1011171
03:00+9ssw38955 0.0 1012149
06:00+9ssw38977 0.0 1013230
09:00+15sw468324 0.0 1013580
12:00+18ssw456632 0.0 10141282
15:00+20ssw455861 0.1 10131665
18:00+20wsw3467100 0.0 1012762
21:00+15ne0182100 0.0 101311
17 may, mon
mon1700:00+13e2287100 0.0 101311
03:00+12e349017 0.0 101244
06:00+13ene31089100 0.0 1010220
09:00+17ene4985100 0.0 1009343
12:00+23e796185 0.0 10061022
15:00+25se7145367 0.0 10041651
18:00+22se71266100 0.0 1004994
21:00+17s4788100 0.1 1005135
18 may, tue
tue1800:00+16wsw2499100 4.3 1005229
03:00+14wsw3598100 5.2 1006200
06:00+13nw3597100 0.9 1005240
09:00+16wnw338497 0.9 1006528
12:00+17w3382100 0.3 1007704
15:00+19wsw337395 1.8 10061054
18:00+18wsw237792 1.8 1006644
21:00+14ssw349110 3.3 100757